Location: Rounton
(54.4000°N, 1.3500°W)
Time: 08:33:10
(UTC+00:00)

Vanguard 1 Rocket - Pass Details

Date: 02 December 2021
Orbit: 651 x 4224 km, 34.3° (Epoch: 19 January)

Event Time Altitude Azimuth Distance (km) Brightness Sun altitude
Rises 08:27:51 0° 270° (W) 6,782 11.4 1.7°
Reaches altitude 10° 08:32:53 10° 260° (W) 6,230 11.3 2.2°
Maximum altitude 08:49:00 28° 212° (SSW) 5,785 11.7 3.8°
Drops below altitude 10° 09:08:10 10° 164° (SSE) 7,326 13.5 5.6°
Sets 09:15:00 0° 155° (SSE) 8,115 14.3 6.3°
